Zurück zum Katalog

FLOCK 4Q 16

AktivWissenschaftSSO
NORAD 58271·PAYLOAD·🇺🇸 United States

Gestartet Nov 11, 2023 von Vandenberg Space Force Base

Loading…

Nächste Überflüge (nächste 24 Stunden)

TLE

AktuellSource: CelesTrak SupGP

Epoche: Sep 15, 2026, 02:44 UTC

1 58271C 23174R   26258.11442130  .00031676  00000+0  50929-3 0  2587
2 58271  97.3766 348.5107 0006017 193.8054 245.0111 15.52975372    16

Verfolge FLOCK 4Q 16 in Echtzeit mit AllMySat

Download on the App Store